Weather in Stepnyaki

Russia / Samara Oblast     52°57′30″N   48°49′51″E
temp.,
°C
wind,
m/s
gust,
m/s
humid.,
%
clouds,
%
prec.,
mm/h
press.,
hPa
HPBL,
m
2 march, tue
tue201:00−14sw349226 0.0 102050
04:00−12ssw479259 0.0 1018178
07:00−10sw71491100 0.0 1014444
10:00−5sw81492100 1.3 1011703
13:000sw91486100 0.3 1007839
16:000sw91496100 0.5 1005845
19:00+1wsw61197100 0.4 1003465
22:00−1w31097100 1.3 1004320
3 march, wed
wed301:00−4wnw479299 0.0 1003117
04:00−6wnw479367 0.0 100494
07:00−8wnw47930 0.0 1004106
10:00−6wnw489336 0.0 1006264
13:00−3wnw578747 0.0 1006741
16:00−3nw588574 0.1 10061003
19:00−6nw3889100 0.1 1008154
22:00−9wnw479098 0.1 1010107
4 march, thu
thu401:00−11wnw449028 0.0 101082
04:00−11w469214 0.0 1012114
07:00−10wsw36920 0.0 101195
10:00−6wsw5118914 0.0 1011410
13:00−2sw7118554 0.0 1009846
16:00−1sw8148677 0.0 1008803
19:00−1sw71687100 0.0 1006709
22:00−1sw81786100 0.0 1005779
5 march, fri
fri501:00−1sw81683100 0.0 1004656
04:00−2sw71685100 0.0 1003561
07:00−1sw71488100 0.0 1004492
10:00+1sw61295100 0.0 1005597
13:00+1sw713100100 0.1 1006480
16:000nnw3598100 0.5 1007249
19:00−3n0198100 0.8 100925
22:00−3e1298100 1.1 101043
6 march, sat
sat601:00−3e3498100 1.3 1008115
04:00+1ssw61299100 4.1 1005431
07:00+2ssw815100100 1.4 1001538
10:00+2sw815100100 1.8 1000480
13:00+1w611100100 0.5 1001506
16:00−4nw6985100 0.6 1004750
19:00−8nw338969 0.0 100724
22:00−9wnw349271 0.0 101058